Time,TemperatureF,DewpointF,PressureIn,WindDirection,WindDirectionDegrees,WindSpeedMPH,WindSpeedGustMPH,Humidity,HourlyPrecipIn,Conditions,Clouds,dailyrainin,SolarRadiationWatts/m^2,SoftwareType,DateUTC
2013-02-11 00:11:00,61.0,57.0,30.20,South,171,2.0,5.0,87,0.00,,,0.00,0,weatherlink.com 1.10,2013-02-11 05:11:00,
2013-02-11 00:26:00,61.2,57.0,30.21,South,172,3.0,6.0,87,0.00,,,0.00,0,weatherlink.com 1.10,2013-02-11 05:26:00,
2013-02-11 00:41:00,61.7,58.0,30.21,ESE,118,1.0,5.0,86,0.00,,,0.00,0,weatherlink.com 1.10,2013-02-11 05:41:00,
2013-02-11 00:56:00,61.4,58.0,30.19,ESE,103,3.0,6.0,87,0.00,,,0.00,0,weatherlink.com 1.10,2013-02-11 05:56:00,
2013-02-11 01:11:00,61.4,58.0,30.18,SE,127,3.0,8.0,88,0.00,,,0.00,0,weatherlink.com 1.10,2013-02-11 06:11:00,
2013-02-11 01:27:00,61.4,58.0,30.18,ESE,109,2.0,9.0,88,0.00,,,0.00,0,weatherlink.com 1.10,2013-02-11 06:27:00,
2013-02-11 01:41:00,61.4,58.0,30.19,SE,135,5.0,8.0,88,0.00,,,0.00,0,weatherlink.com 1.10,2013-02-11 06:41:00,
2013-02-11 01:56:00,61.6,58.0,30.19,SSE,155,5.0,7.0,89,0.00,,,0.00,0,weatherlink.com 1.10,2013-02-11 06:56:00,
2013-02-11 02:12:00,61.7,59.0,30.19,SSE,153,1.0,6.0,89,0.00,,,0.00,0,weatherlink.com 1.10,2013-02-11 07:12:00,
2013-02-11 02:26:00,61.4,58.0,30.17,SE,146,1.0,6.0,89,0.00,,,0.00,0,weatherlink.com 1.10,2013-02-11 07:26:00,
2013-02-11 02:41:00,61.3,58.0,30.18,SE,140,4.0,5.0,90,0.00,,,0.00,0,weatherlink.com 1.10,2013-02-11 07:41:00,
2013-02-11 02:57:00,61.3,58.0,30.18,South,181,2.0,5.0,90,0.00,,,0.00,0,weatherlink.com 1.10,2013-02-11 07:57:00,
2013-02-11 03:11:00,61.0,58.0,30.17,South,181,0.0,2.0,90,0.00,,,0.00,0,weatherlink.com 1.10,2013-02-11 08:11:00,
2013-02-11 03:26:00,61.0,59.0,30.16,SSE,156,2.0,3.0,92,0.00,,,0.00,0,weatherlink.com 1.10,2013-02-11 08:26:00,
2013-02-11 03:41:00,61.1,59.0,30.16,South,177,0.0,0.0,92,0.00,,,0.00,0,weatherlink.com 1.10,2013-02-11 08:41:00,
2013-02-11 03:59:00,61.0,59.0,30.15,South,177,0.0,0.0,92,0.00,,,0.00,0,weatherlink.com 1.10,2013-02-11 08:59:00,
2013-02-11 04:11:00,60.7,59.0,30.15,South,177,0.0,0.0,93,0.00,,,0.00,0,weatherlink.com 1.10,2013-02-11 09:11:00,
2013-02-11 04:26:00,60.6,59.0,30.15,South,177,1.0,2.0,93,0.01,,,0.01,0,weatherlink.com 1.10,2013-02-11 09:26:00,
2013-02-11 04:41:00,61.3,59.0,30.14,South,172,4.0,8.0,93,0.01,,,0.01,0,weatherlink.com 1.10,2013-02-11 09:41:00,
2013-02-11 04:57:00,61.4,60.0,30.13,SSE,157,5.0,8.0,94,0.02,,,0.02,0,weatherlink.com 1.10,2013-02-11 09:57:00,
2013-02-11 05:12:00,62.5,61.0,30.14,South,179,7.0,14.0,94,0.04,,,0.04,0,weatherlink.com 1.10,2013-02-11 10:12:00,
2013-02-11 05:27:00,61.3,60.0,30.14,South,182,10.0,11.0,94,0.04,,,0.05,0,weatherlink.com 1.10,2013-02-11 10:27:00,
2013-02-11 05:42:00,60.4,59.0,30.15,South,185,5.0,8.0,94,0.06,,,0.07,0,weatherlink.com 1.10,2013-02-11 10:42:00,
2013-02-11 05:57:00,60.4,59.0,30.15,SSW,197,3.0,7.0,95,0.08,,,0.10,0,weatherlink.com 1.10,2013-02-11 10:57:00,
2013-02-11 06:12:00,60.8,59.0,30.15,SW,217,4.0,7.0,95,0.09,,,0.13,0,weatherlink.com 1.10,2013-02-11 11:12:00,
2013-02-11 06:27:00,60.6,60.0,30.15,SSW,197,4.0,7.0,96,0.11,,,0.16,0,weatherlink.com 1.10,2013-02-11 11:27:00,
2013-02-11 06:42:00,60.5,59.0,30.15,SW,217,0.0,5.0,96,0.12,,,0.19,0,weatherlink.com 1.10,2013-02-11 11:42:00,
2013-02-11 06:57:00,61.3,60.0,30.15,SW,228,0.0,4.0,96,0.11,,,0.21,0,weatherlink.com 1.10,2013-02-11 11:57:00,
2013-02-11 07:12:00,61.0,60.0,30.16,West,260,3.0,5.0,96,0.12,,,0.25,0,weatherlink.com 1.10,2013-02-11 12:12:00,
2013-02-11 07:27:00,61.5,61.0,30.15,SW,216,3.0,9.0,97,0.15,,,0.31,0,weatherlink.com 1.10,2013-02-11 12:27:00,
2013-02-11 07:42:00,61.7,61.0,30.16,SW,222,2.0,6.0,96,0.18,,,0.37,5,weatherlink.com 1.10,2013-02-11 12:42:00,
2013-02-11 07:57:00,61.4,61.0,30.18,SW,216,3.0,5.0,97,0.21,,,0.42,7,weatherlink.com 1.10,2013-02-11 12:57:00,
2013-02-11 08:12:00,61.8,61.0,30.18,West,265,6.0,11.0,96,0.22,,,0.48,12,weatherlink.com 1.10,2013-02-11 13:12:00,
2013-02-11 08:27:00,61.7,61.0,30.18,WSW,238,2.0,5.0,96,0.23,,,0.54,11,weatherlink.com 1.10,2013-02-11 13:27:00,
2013-02-11 08:42:00,62.1,61.0,30.17,South,191,5.0,9.0,97,0.23,,,0.60,16,weatherlink.com 1.10,2013-02-11 13:42:00,
2013-02-11 08:57:00,62.0,61.0,30.16,SW,214,3.0,9.0,97,0.24,,,0.66,37,weatherlink.com 1.10,2013-02-11 13:57:00,
2013-02-11 09:12:00,61.6,61.0,30.15,SSW,193,3.0,5.0,96,0.23,,,0.71,91,weatherlink.com 1.10,2013-02-11 14:12:00,
2013-02-11 09:27:00,61.4,60.0,30.15,South,186,6.0,9.0,96,0.16,,,0.71,97,weatherlink.com 1.10,2013-02-11 14:27:00,
2013-02-11 09:42:00,60.3,59.0,30.14,SSW,194,5.0,7.0,96,0.10,,,0.71,90,weatherlink.com 1.10,2013-02-11 14:42:00,
2013-02-11 09:57:00,60.4,59.0,30.13,SSW,206,6.0,10.0,96,0.05,,,0.71,111,weatherlink.com 1.10,2013-02-11 14:57:00,
2013-02-11 10:12:00,60.8,60.0,30.13,SSW,193,6.0,11.0,96,0.00,,,0.71,58,weatherlink.com 1.10,2013-02-11 15:12:00,
2013-02-11 10:27:00,60.9,60.0,30.14,SSW,202,6.0,10.0,95,0.00,,,0.71,77,weatherlink.com 1.10,2013-02-11 15:27:00,
2013-02-11 10:42:00,61.1,60.0,30.13,SSW,197,7.0,8.0,95,0.00,,,0.71,156,weatherlink.com 1.10,2013-02-11 15:42:00,
2013-02-11 10:57:00,61.6,60.0,30.13,South,191,4.0,9.0,95,0.00,,,0.71,105,weatherlink.com 1.10,2013-02-11 15:57:00,
2013-02-11 11:12:00,61.6,60.0,30.13,South,175,5.0,9.0,95,0.00,,,0.71,93,weatherlink.com 1.10,2013-02-11 16:12:00,
2013-02-11 11:27:00,62.0,61.0,30.15,WNW,292,7.0,9.0,96,0.00,,,0.71,28,weatherlink.com 1.10,2013-02-11 16:27:00,
2013-02-11 11:42:00,61.8,60.0,30.15,WSW,247,3.0,9.0,95,0.01,,,0.72,58,weatherlink.com 1.10,2013-02-11 16:42:00,
2013-02-11 11:57:00,61.9,61.0,30.14,WSW,249,5.0,10.0,96,0.06,,,0.77,47,weatherlink.com 1.10,2013-02-11 16:57:00,
2013-02-11 12:12:00,62.1,61.0,30.14,WSW,251,3.0,10.0,96,0.11,,,0.82,79,weatherlink.com 1.10,2013-02-11 17:12:00,
2013-02-11 12:27:00,62.3,61.0,30.12,WSW,238,4.0,7.0,96,0.15,,,0.86,54,weatherlink.com 1.10,2013-02-11 17:27:00,
2013-02-11 12:42:00,62.6,62.0,30.11,SW,236,4.0,7.0,96,0.15,,,0.87,134,weatherlink.com 1.10,2013-02-11 17:42:00,
2013-02-11 12:57:00,62.7,62.0,30.09,SSW,212,4.0,9.0,96,0.10,,,0.87,51,weatherlink.com 1.10,2013-02-11 17:57:00,
2013-02-11 13:12:00,62.6,62.0,30.08,SSW,194,6.0,9.0,96,0.05,,,0.87,69,weatherlink.com 1.10,2013-02-11 18:12:00,
2013-02-11 13:27:00,62.2,61.0,30.09,SSW,204,6.0,7.0,95,0.02,,,0.88,178,weatherlink.com 1.10,2013-02-11 18:27:00,
2013-02-11 13:42:00,62.7,61.0,30.09,South,189,6.0,12.0,95,0.01,,,0.88,95,weatherlink.com 1.10,2013-02-11 18:42:00,
2013-02-11 13:58:00,62.8,61.0,30.08,SSW,198,7.0,12.0,94,0.01,,,0.88,114,weatherlink.com 1.10,2013-02-11 18:58:00,
2013-02-11 14:13:00,62.6,61.0,30.07,SSW,196,8.0,11.0,94,0.01,,,0.88,183,weatherlink.com 1.10,2013-02-11 19:13:00,
2013-02-11 14:28:00,62.4,61.0,30.07,SSW,203,13.0,15.0,94,0.00,,,0.88,299,weatherlink.com 1.10,2013-02-11 19:28:00,
2013-02-11 14:43:00,62.9,61.0,30.06,SW,218,10.0,12.0,94,0.00,,,0.88,445,weatherlink.com 1.10,2013-02-11 19:43:00,
2013-02-11 14:58:00,62.4,60.0,30.06,SSW,195,9.0,14.0,93,0.00,,,0.88,155,weatherlink.com 1.10,2013-02-11 19:58:00,
2013-02-11 15:13:00,61.7,60.0,30.06,SW,231,6.0,15.0,94,0.00,,,0.88,104,weatherlink.com 1.10,2013-02-11 20:13:00,
2013-02-11 15:28:00,61.3,60.0,30.06,SSW,199,6.0,12.0,94,0.00,,,0.88,100,weatherlink.com 1.10,2013-02-11 20:28:00,
2013-02-11 15:43:00,61.3,60.0,30.06,SW,230,5.0,10.0,95,0.00,,,0.88,100,weatherlink.com 1.10,2013-02-11 20:43:00,
2013-02-11 15:58:00,61.5,60.0,30.06,SW,224,8.0,11.0,95,0.00,,,0.88,127,weatherlink.com 1.10,2013-02-11 20:58:00,
2013-02-11 16:13:00,61.6,60.0,30.07,SW,226,12.0,12.0,95,0.00,,,0.88,95,weatherlink.com 1.10,2013-02-11 21:13:00,
2013-02-11 16:28:00,62.6,61.0,30.07,WSW,237,8.0,13.0,95,0.00,,,0.88,58,weatherlink.com 1.10,2013-02-11 21:28:00,
2013-02-11 16:43:00,63.2,62.0,30.06,SW,234,5.0,9.0,94,0.00,,,0.88,69,weatherlink.com 1.10,2013-02-11 21:43:00,
2013-02-11 16:58:00,63.6,62.0,30.06,WSW,244,5.0,8.0,94,0.00,,,0.88,90,weatherlink.com 1.10,2013-02-11 21:58:00,
2013-02-11 17:13:00,64.1,62.0,30.06,SSW,209,8.0,11.0,93,0.00,,,0.88,42,weatherlink.com 1.10,2013-02-11 22:13:00,
2013-02-11 17:43:00,63.9,62.0,30.05,SSW,208,3.0,4.0,93,0.00,,,0.88,12,weatherlink.com 1.10,2013-02-11 22:43:00,
2013-02-11 17:58:00,62.6,61.0,30.05,South,176,2.0,4.0,93,0.00,,,0.88,0,weatherlink.com 1.10,2013-02-11 22:58:00,
2013-02-11 18:13:00,62.1,60.0,30.06,South,186,3.0,4.0,94,0.00,,,0.88,0,weatherlink.com 1.10,2013-02-11 23:13:00,
2013-02-11 18:28:00,62.0,60.0,30.07,SSW,207,3.0,4.0,94,0.00,,,0.88,0,weatherlink.com 1.10,2013-02-11 23:28:00,
2013-02-11 18:44:00,62.2,61.0,30.07,SW,222,0.0,3.0,95,0.00,,,0.88,0,weatherlink.com 1.10,2013-02-11 23:44:00,
2013-02-11 18:58:00,62.3,61.0,30.07,SW,222,0.0,1.0,95,0.00,,,0.88,0,weatherlink.com 1.10,2013-02-11 23:58:00,
2013-02-11 19:13:00,62.3,61.0,30.08,SW,234,0.0,3.0,95,0.00,,,0.88,0,weatherlink.com 1.10,2013-02-12 00:13:00,
2013-02-11 19:28:00,62.3,61.0,30.09,WNW,283,2.0,3.0,95,0.00,,,0.88,0,weatherlink.com 1.10,2013-02-12 00:28:00,
2013-02-11 19:43:00,62.2,61.0,30.07,WNW,299,0.0,0.0,95,0.00,,,0.88,0,weatherlink.com 1.10,2013-02-12 00:43:00,
2013-02-11 19:58:00,62.3,61.0,30.08,WNW,303,1.0,2.0,96,0.01,,,0.89,0,weatherlink.com 1.10,2013-02-12 00:58:00,
2013-02-11 20:13:00,62.5,61.0,30.08,WNW,294,4.0,5.0,96,0.02,,,0.90,0,weatherlink.com 1.10,2013-02-12 01:13:00,
2013-02-11 20:28:00,62.6,62.0,30.10,West,281,3.0,7.0,96,0.04,,,0.92,0,weatherlink.com 1.10,2013-02-12 01:28:00,
2013-02-11 20:43:00,62.5,61.0,30.09,NW,307,3.0,7.0,96,0.06,,,0.94,0,weatherlink.com 1.10,2013-02-12 01:43:00,
2013-02-11 20:58:00,62.2,61.0,30.08,NW,308,0.0,4.0,96,0.06,,,0.95,0,weatherlink.com 1.10,2013-02-12 01:58:00,
2013-02-11 21:13:00,62.0,61.0,30.07,NW,321,1.0,3.0,96,0.05,,,0.95,0,weatherlink.com 1.10,2013-02-12 02:13:00,
2013-02-11 21:28:00,61.9,61.0,30.08,NW,321,2.0,2.0,96,0.04,,,0.96,0,weatherlink.com 1.10,2013-02-12 02:28:00,
2013-02-11 21:43:00,61.6,61.0,30.08,NW,308,1.0,4.0,96,0.04,,,0.99,0,weatherlink.com 1.10,2013-02-12 02:43:00,
2013-02-11 21:58:00,61.6,61.0,30.07,NW,318,0.0,0.0,97,0.07,,,1.02,0,weatherlink.com 1.10,2013-02-12 02:58:00,
2013-02-11 22:13:00,61.2,60.0,30.08,WSW,241,0.0,0.0,97,0.11,,,1.06,0,weatherlink.com 1.10,2013-02-12 03:13:00,
2013-02-11 22:43:00,60.4,60.0,30.05,South,175,0.0,0.0,97,0.16,,,1.15,0,weatherlink.com 1.10,2013-02-12 03:43:00,
2013-02-11 22:58:00,60.5,60.0,30.06,South,175,0.0,0.0,97,0.17,,,1.19,0,weatherlink.com 1.10,2013-02-12 03:58:00,
2013-02-11 23:13:00,60.2,59.0,30.07,SSW,206,0.0,0.0,97,0.18,,,1.24,0,weatherlink.com 1.10,2013-02-12 04:13:00,
2013-02-11 23:28:00,60.0,59.0,30.09,SSW,197,2.0,4.0,97,0.18,,,1.28,0,weatherlink.com 1.10,2013-02-12 04:28:00,
2013-02-11 23:43:00,59.6,59.0,30.07,South,175,3.0,6.0,97,0.17,,,1.32,0,weatherlink.com 1.10,2013-02-12 04:43:00,
2013-02-11 23:58:00,59.0,58.0,30.06,South,174,3.0,5.0,97,0.16,,,1.36,0,weatherlink.com 1.10,2013-02-12 04:58:00,